Theta_e
355 353 359 361 361 361 361 361 361 361 361 360 359 357 356 355 356 358 358 357 357 358 357 357 355 353 352 351 351 352 352 351
353 354 356 360 360 361 360 360 360 360 360 360 359 357 355 355 356 357 357 357 358 357 357 356 354 352 351 351 351 351 350 350
353 354 354 359 359 359 359 359 359 358 359 359 358 357 355 355 354 355 355 355 355 354 353 353 352 352 351 351 350 350 350 348
354 351 352 353 356 358 358 358 358 358 358 358 357 357 356 354 354 354 354 354 353 353 352 352 353 353 352 352 351 352 350 349
355 353 350 350 348 348 352 359 358 358 359 358 357 356 355 354 353 353 353 353 352 352 351 351 351 351 353 353 352 352 351 350
354 353 350 347 348 346 345 354 358 358 358 358 356 354 349 347 347 347 348 346 349 350 350 351 351 353 353 352 351 353 349 343
351 352 352 350 350 349 345 350 349 353 352 352 352 352 347 349 350 348 348 348 350 351 352 353 354 354 352 349 347 350 344 344
351 353 352 354 354 351 349 347 347 346 349 351 353 353 352 349 349 347 348 346 349 350 350 352 353 352 351 352 350 349 348 348
350 352 355 355 354 353 352 350 350 349 348 348 349 353 351 348 350 350 345 345 351 353 354 353 351 353 354 353 352 350 349 348
350 352 355 356 355 355 356 351 352 352 350 350 351 352 350 349 351 349 349 344 345 352 352 352 354 355 354 353 352 353 351 351
352 351 354 354 357 355 354 356 354 355 355 354 353 353 353 349 351 348 347 343 343 346 349 352 357 356 356 356 353 353 352 351
352 354 354 355 356 357 356 356 354 354 354 354 354 356 353 352 352 350 349 348 347 350 352 358 358 358 355 353 351 351 350 350
353 353 355 352 354 354 358 357 353 355 355 354 352 352 351 351 352 355 355 352 351 354 360 357 357 352 353 348 349 349 350 351
353 354 352 352 352 354 359 357 357 358 351 349 350 352 353 350 351 355 354 351 354 351 354 351 349 350 348 349 345 346 348 347
352 353 351 351 353 356 356 355 350 347 346 353 356 357 359 357 357 357 353 349 349 346 344 343 344 346 347 347 343 342 344 347
352 351 352 351 354 353 349 342 343 343 352 352 353 355 354 353 354 356 348 345 346 346 345 344 345 345 343 348 340 339 340 345
349 350 350 350 353 351 349 351 354 354 351 350 350 349 350 345 349 348 351 343 341 343 343 342 342 341 341 343 335 331 326 329
346 348 348 350 351 352 356 357 353 352 349 348 347 344 346 345 346 347 344 343 340 341 334 335 336 336 332 332 335 324 320 318
344 347 349 350 352 353 355 355 355 349 345 346 345 341 339 341 341 338 338 337 332 331 330 328 326 326 326 321 321 321 323 321
Wind_Speed
20 18 18 16 17 19 18 17 17 17 16 15 13 13 12 11 10 9 8 8 8 6 5 5 4 2 0 1 3 5 6 7
19 17 18 15 17 18 19 18 17 16 15 14 14 13 12 11 9 8 8 7 6 5 4 3 2 1 2 4 5 6 7 9
19 18 18 14 16 16 17 18 17 16 15 14 13 12 11 10 9 7 6 5 4 3 1 1 2 4 5 6 7 8 9 10
18 18 17 17 15 15 15 16 16 16 15 14 13 12 10 9 8 7 5 4 3 1 2 4 5 6 7 8 9 9 10 11
18 18 18 16 16 15 14 14 14 15 14 13 11 11 10 9 7 6 5 5 2 3 4 5 7 8 9 10 11 11 12 15
17 17 17 17 15 14 14 13 14 14 13 13 12 10 11 7 8 8 7 2 4 5 5 6 7 8 10 15 15 11 11 9
20 18 16 16 15 13 11 14 12 12 10 9 8 9 6 4 2 4 3 3 5 6 9 9 9 10 13 7 5 13 7 8
20 16 18 16 15 15 11 10 7 7 7 6 7 6 3 3 4 4 1 4 2 7 6 5 5 6 7 8 8 8 9 10
20 18 18 17 15 14 10 9 9 7 7 6 7 7 4 4 3 2 3 3 3 3 5 5 6 7 9 9 10 10 11 10
20 19 18 17 15 13 11 8 8 7 7 6 6 6 3 2 1 3 2 4 4 5 6 7 8 7 10 11 10 11 12 11
17 16 17 15 11 13 10 10 7 6 7 5 5 5 6 3 2 2 2 3 3 5 7 8 8 8 9 10 12 12 12 11
16 14 16 14 13 12 11 9 7 7 5 4 3 5 4 4 4 3 1 2 3 4 7 7 10 11 11 9 12 12 11 12
16 16 12 11 12 10 10 8 6 6 4 4 3 3 4 3 2 1 1 4 5 4 6 9 7 10 8 8 12 11 11 10
16 16 14 13 13 13 11 8 7 7 5 4 3 3 5 4 4 2 2 5 5 4 4 6 8 10 8 9 11 11 10 8
16 15 14 12 14 13 10 8 7 7 7 6 7 6 7 5 7 7 7 5 3 2 4 7 9 9 10 10 10 12 9 4
16 16 15 14 13 10 10 9 9 9 9 7 7 8 10 9 9 9 7 5 2 4 4 9 8 10 9 7 10 9 7 3
16 15 15 14 14 10 8 7 8 8 8 7 5 5 4 3 6 7 2 4 3 3 3 9 5 7 9 4 8 10 6 7
16 16 15 15 14 11 12 10 10 10 8 7 7 5 6 6 5 6 5 3 6 7 6 7 5 6 8 5 6 7 7 6
16 15 15 15 14 13 13 11 14 10 8 3 6 8 6 9 9 10 8 9 9 7 9 7 6 7 8 7 7 7 5 6
Wind_Direction
154 150 138 149 143 140 141 141 137 135 135 135 132 129 129 132 130 129 130 127 130 129 120 114 118 141 50 333 325 324 328 319
153 153 154 153 146 145 146 143 139 136 133 130 130 131 129 128 128 128 130 130 129 127 126 129 153 200 269 287 298 302 302 301
151 147 146 154 148 148 148 142 137 133 129 127 126 127 129 129 129 128 131 135 133 148 140 335 295 288 296 298 298 295 291 289
153 154 154 160 153 144 144 139 136 132 128 125 125 124 125 128 131 134 144 154 169 198 249 261 284 299 298 293 287 274 276 280
162 154 156 156 164 160 152 136 135 131 128 123 123 123 128 134 141 147 171 178 225 255 284 304 305 298 293 290 278 280 289 283
167 159 160 160 158 159 151 138 132 130 126 125 133 139 165 175 172 168 87 95 263 281 290 283 284 282 282 265 250 247 265 266
167 172 160 160 154 150 154 152 156 145 162 168 169 175 195 139 120 334 101 227 269 272 271 260 259 262 253 287 278 216 254 302
167 172 169 160 162 158 151 163 160 163 154 163 168 183 126 174 162 212 239 210 269 187 277 240 254 266 328 307 304 305 306 301
170 174 168 165 162 167 154 171 160 157 162 167 168 172 158 208 163 293 312 343 245 323 328 293 307 326 296 303 300 300 296 297
175 176 174 170 165 158 164 158 168 155 174 151 161 161 184 225 229 263 340 306 328 328 316 323 318 322 316 301 306 306 305 304
176 176 171 174 150 159 173 163 155 173 144 173 159 149 170 207 173 270 253 291 320 326 339 321 335 317 310 308 312 315 311 306
177 173 168 170 154 167 158 165 177 165 164 159 151 158 186 198 169 274 289 338 7 334 306 323 329 325 335 314 314 323 306 302
170 169 157 157 157 161 161 165 168 133 137 137 144 148 172 172 178 205 10 23 1 355 349 353 335 331 329 344 313 306 314 313
165 163 155 146 169 171 158 160 139 129 144 118 129 132 93 120 109 82 52 34 347 352 78 16 343 328 321 334 314 310 311 305
162 157 152 166 164 169 154 146 131 135 139 99 77 88 117 119 123 127 117 134 131 22 337 72 339 335 318 311 307 290 295 322
159 155 157 153 152 163 160 154 149 148 122 110 119 124 131 139 147 160 163 166 149 152 28 48 328 318 302 294 295 322 309 189
157 154 152 151 154 157 147 149 121 130 122 135 132 129 123 55 39 30 32 31 346 41 86 43 341 309 289 342 332 298 336 317
153 150 150 151 151 151 130 125 125 133 145 166 169 133 60 57 57 27 31 50 69 47 59 56 353 307 317 351 359 344 336 344
148 144 146 148 153 147 164 156 164 169 172 136 113 92 82 65 61 65 49 60 49 64 60 58 28 351 352 353 343 12 348 359